W3EJE-13 Weather Reports


Display with metric or nautical units.
time (UTC)temp
F
wind
direction
speed
MPH
gust
MPH
rain 1hr
in
rain 24hr
in
rain mn
in
humidity
%
barometer
mb
20260831073315 66 238 0.0 0.0 0.00 0.00 0.00 99 1023.3
20260831072811 66 238 0.0 0.0 0.00 0.00 0.00 99 1023.2
20260831072307 66 238 0.0 0.0 0.00 0.00 0.00 99 1023.3
20260831071803 66 238 0.0 0.0 0.00 0.00 0.00 99 1023.2
20260831071257 66 238 0.0 0.0 0.00 0.00 0.00 99 1023.2
20260831070756 66 238 0.0 0.0 0.00 0.00 0.00 99 1023.3
20260831070255 67 238 0.0 0.0 0.00 0.00 0.00 99 1023.2
20260831065755 67 238 0.0 0.0 0.00 0.00 0.00 99 1023.3
20260831065253 67 238 0.0 0.0 0.00 0.00 0.00 99 1023.3
20260831064749 67 238 0.0 0.0 0.00 0.00 0.00 99 1023.2
20260831064243 67 238 0.0 0.0 0.00 0.00 0.00 99 1023.4
20260831063740 67 239 0.0 0.0 0.00 0.00 0.00 99 1023.3
20260831063239 67 238 0.0 0.0 0.00 0.00 0.00 99 1023.3
20260831062734 67 239 0.0 0.0 0.00 0.00 0.00 99 1023.4
20260831062229 67 239 0.0 0.0 0.00 0.00 0.00 99 1023.5
20260831061727 67 244 0.0 0.0 0.00 0.00 0.00 99 1023.4
20260831061222 67 246 0.0 0.0 0.00 0.00 0.00 99 1023.6
20260831060718 67 239 0.0 0.0 0.00 0.00 0.00 99 1023.5
20260831060213 68 237 0.0 0.0 0.00 0.00 0.00 99 1023.6
20260831055712 67 242 0.0 0.0 0.00 0.00 0.00 99 1023.8
20260831055208 68 241 0.0 0.0 0.00 0.00 0.00 99 1023.5
20260831054708 68 246 0.0 0.0 0.00 0.00 0.00 99 1023.5
20260831054202 68 240 0.0 0.0 0.00 0.00 0.00 99 1023.7
20260831053656 68 243 0.0 0.0 0.00 0.00 0.00 99 1023.6
20260831053155 68 242 0.0 0.0 0.00 0.00 0.00 99 1023.5
20260831052654 68 240 0.0 0.0 0.00 0.00 0.00 99 1023.6
20260831052154 68 244 0.0 0.0 0.00 0.00 0.00 99 1023.6
20260831051652 68 248 0.0 0.0 0.00 0.00 0.00 99 1023.6
20260831051151 68 249 0.0 0.0 0.00 0.00 0.00 99 1023.7
20260831050646 68 240 0.0 0.0 0.00 0.00 0.00 99 1023.6
20260831050144 68 240 0.0 0.0 0.00 0.00 0.00 99 1023.5
20260831045644 68 237 0.0 0.0 0.00 0.00 0.00 99 1023.8
20260831045139 68 234 0.0 0.0 0.00 0.00 0.00 99 1023.5
20260831044635 68 234 0.0 0.0 0.00 0.00 0.00 99 1023.6
20260831044130 69 237 0.0 0.0 0.00 0.00 0.00 99 1023.4
20260831043625 69 237 0.0 0.0 0.00 0.00 0.00 99 1023.7
20260831043121 69 229 0.0 0.0 0.00 0.00 0.00 99 1023.6
20260831042620 69 241 0.0 0.0 0.00 0.00 0.00 99 1023.7
20260831042115 68 223 0.0 0.0 0.00 0.00 0.00 99 1023.9
20260831041609 69 248 0.0 0.0 0.00 0.00 0.00 99 1023.5
20260831041103 69 224 0.0 0.0 0.00 0.00 0.00 99 1023.6
20260831040557 69 239 0.0 0.0 0.00 0.02 0.02 99 1024.0
20260831040052 69 239 0.0 0.0 0.00 0.02 0.02 99 1024.0
20260831035549 69 239 0.0 0.0 0.00 0.02 0.02 99 1024.3
20260831035045 69 256 0.0 0.0 0.00 0.02 0.02 99 1024.0
20260831034544 69 244 0.0 0.0 0.00 0.02 0.02 99 1023.7
20260831034040 69 247 0.0 0.0 0.00 0.02 0.02 99 1024.1
20260831033535 69 212 0.0 0.0 0.00 0.02 0.02 99 1023.8
20260831033030 69 235 0.0 0.0 0.05 0.02 0.02 99 1024.1
20260831032524 70 239 0.0 0.0 0.05 0.02 0.02 99 1024.2
20260831032020 70 228 0.0 0.0 0.07 0.01 0.01 99 1024.1
20260831031519 70 231 0.0 0.0 0.07 0.01 0.01 99 1024.3
20260831031019 70 235 0.0 0.0 0.00 0.00 0.00 99 1024.3
20260831030518 69 235 0.0 0.0 0.00 0.00 0.00 99 1024.4
20260831030017 70 235 0.0 0.0 0.00 0.00 0.00 99 1024.5
20260831025510 70 235 0.0 0.0 0.00 0.00 0.00 99 1024.4
20260831025005 70 235 0.0 0.0 0.00 0.00 0.00 99 1024.3
20260831024500 70 235 0.0 0.0 0.00 0.00 0.00 98 1024.2
20260831023954 70 235 0.0 0.0 0.00 0.00 0.00 98 1024.1
20260831023452 70 235 0.0 0.0 0.00 0.00 0.00 97 1024.1
20260831022948 71 236 0.0 0.0 0.00 0.00 0.00 97 1024.2
20260831022446 71 236 0.0 0.0 0.00 0.00 0.00 97 1024.2
20260831021942 71 236 0.0 0.0 0.00 0.00 0.00 96 1024.4
20260831021441 71 239 0.0 0.0 0.00 0.00 0.00 96 1024.5
20260831020937 71 240 0.0 0.0 0.00 0.00 0.00 95 1024.3
20260831020436 71 240 0.0 0.0 0.00 0.00 0.00 95 1024.0
20260831015931 71 240 0.0 0.0 0.00 0.00 0.00 95 1024.1
20260831015428 71 239 0.0 0.0 0.00 0.00 0.00 94 1024.2
20260831014922 71 240 0.0 0.0 0.00 0.00 0.00 95 1024.1
20260831014417 71 240 0.0 0.0 0.00 0.00 0.00 94 1024.2
20260831013913 71 240 0.0 0.0 0.00 0.00 0.00 94 1023.9
20260831013408 71 240 0.0 0.0 0.00 0.00 0.00 94 1024.0
20260831012902 71 239 0.0 0.0 0.00 0.00 0.00 94 1024.1
20260831012358 72 240 0.0 0.0 0.00 0.00 0.00 94 1024.0
20260831011857 72 240 0.0 0.0 0.00 0.00 0.00 94 1024.0
20260831011352 72 240 0.0 0.0 0.00 0.00 0.00 94 1023.8
20260831010848 72 240 0.0 0.0 0.00 0.00 0.00 94 1023.9
20260831010348 72 240 0.0 0.0 0.00 0.00 0.00 93 1023.5
20260831005844 72 240 0.0 0.0 0.00 0.00 0.00 93 1023.4
20260831005339 72 240 0.0 0.0 0.00 0.00 0.00 94 1023.4
20260831004834 72 240 0.0 0.0 0.00 0.00 0.00 94 1023.4
20260831004330 72 240 0.0 0.0 0.00 0.00 0.00 93 1023.2
20260831003826 73 241 0.0 0.0 0.00 0.00 0.00 92 1023.1
20260831003322 73 231 0.0 0.0 0.00 0.00 0.00 90 1023.1
20260831002821 73 229 0.0 0.0 0.00 0.00 0.00 90 1022.7
20260831002320 73 243 0.0 0.0 0.00 0.00 0.00 90 1022.8
20260831001816 73 244 0.0 0.0 0.00 0.00 0.00 90 1022.7
20260831001311 73 240 0.0 0.0 0.00 0.00 0.00 89 1022.8
20260831000809 74 231 0.0 0.0 0.00 0.00 0.00 89 1022.8
20260831000310 74 231 0.0 0.0 0.00 0.00 0.00 89 1022.5
20260830235807 74 227 0.0 0.0 0.00 0.00 0.00 89 1022.4
20260830235305 74 233 0.0 0.0 0.00 0.00 0.00 89 1022.4
20260830234757 75 233 0.0 0.0 0.00 0.00 0.00 86 1022.2
20260830234253 75 233 0.0 0.0 0.00 0.00 0.00 85 1022.6
20260830233748 76 231 0.0 0.0 0.00 0.00 0.00 84 1022.1
20260830233244 76 241 0.0 0.0 0.00 0.00 0.00 84 1022.2
20260830232739 77 242 0.0 0.0 0.00 0.00 0.00 84 1022.4
20260830232235 77 243 0.0 0.0 0.00 0.00 0.00 82 1022.3
20260830231731 78 246 0.0 0.0 0.00 0.00 0.00 81 1022.5
20260830231231 78 245 0.0 0.0 0.00 0.00 0.00 78 1022.5
20260830230726 79 248 1.0 1.0 0.00 0.00 0.00 76 1022.3
20260830230221 79 256 2.0 2.0 0.00 0.00 0.00 76 1022.4
20260830225720 79 248 1.0 1.0 0.00 0.00 0.00 77 1022.2
20260830225215 79 245 1.0 2.0 0.00 0.00 0.00 75 1022.4
20260830224714 80 263 4.0 5.0 0.00 0.00 0.00 72 1022.5
20260830224210 80 290 2.0 3.0 0.00 0.00 0.00 74 1022.3
20260830223707 80 281 3.0 3.0 0.00 0.00 0.00 72 1023.0
20260830223202 80 259 2.0 2.0 0.00 0.00 0.00 72 1022.7
20260830222656 80 268 3.0 3.0 0.00 0.00 0.00 73 1022.5
20260830222152 80 273 4.0 6.0 0.00 0.00 0.00 72 1022.4
20260830221648 81 271 5.0 6.0 0.00 0.00 0.00 70 1022.4
20260830221144 81 279 4.0 6.0 0.00 0.00 0.00 71 1022.7
20260830220639 81 251 2.0 2.0 0.00 0.00 0.00 70 1022.4
20260830220138 81 261 2.0 2.0 0.00 0.00 0.00 71 1022.5
20260830215637 81 261 2.0 2.0 0.00 0.00 0.00 71 1022.7
20260830215131 80 250 3.0 3.0 0.00 0.00 0.00 71 1022.7
20260830214627 80 247 1.0 1.0 0.00 0.00 0.00 72 1022.8
20260830214121 81 239 2.0 2.0 0.00 0.00 0.00 71 1022.8
20260830213621 81 287 3.0 3.0 0.00 0.00 0.00 70 1022.6
20260830213116 81 302 3.0 3.0 0.00 0.00 0.00 72 1022.5
20260830212612 81 324 1.0 2.0 0.00 0.00 0.00 68 1022.6
20260830212107 81 308 3.0 3.0 0.00 0.00 0.00 70 1022.6
20260830211601 81 261 3.0 3.0 0.00 0.00 0.00 72 1022.5
20260830211055 81 247 4.0 6.0 0.00 0.00 0.00 70 1022.3
20260830210551 81 284 4.0 5.0 0.00 0.00 0.00 70 1022.3
20260830210050 81 296 3.0 5.0 0.00 0.00 0.00 70 1022.6
20260830205548 81 294 3.0 5.0 0.00 0.00 0.00 70 1022.6
20260830205043 80 289 5.0 6.0 0.00 0.00 0.00 71 1022.8
20260830204542 81 263 4.0 5.0 0.00 0.00 0.00 73 1022.5
20260830204042 81 302 3.0 3.0 0.00 0.00 0.00 72 1022.7
20260830203539 81 298 7.0 8.0 0.00 0.00 0.00 71 1022.8
20260830203038 79 276 5.0 6.0 0.00 0.00 0.00 75 1023.0
20260830202533 80 252 5.0 6.0 0.00 0.00 0.00 75 1022.7
20260830202029 82 279 5.0 7.0 0.00 0.00 0.00 71 1022.5
20260830201528 81 272 6.0 7.0 0.00 0.00 0.00 73 1022.6
20260830201023 81 239 3.0 5.0 0.00 0.00 0.00 73 1022.7
20260830200518 80 7 6.0 7.0 0.00 0.00 0.00 71 1022.8
20260830200018 81 308 6.0 7.0 0.00 0.00 0.00 70 1023.0
20260830195513 81 320 8.0 9.0 0.00 0.00 0.00 70 1022.7
20260830195011 80 277 4.0 5.0 0.00 0.00 0.00 72 1023.0
20260830194510 82 270 6.0 8.0 0.00 0.00 0.00 70 1023.2
20260830194005 82 259 5.0 7.0 0.00 0.00 0.00 68 1023.1
20260830193504 82 260 5.0 6.0 0.00 0.00 0.00 69 1023.1
20260830192959 81 274 6.0 10.0 0.00 0.00 0.00 71 1023.2
20260830192455 80 283 7.0 9.0 0.00 0.00 0.00 70 1023.2
20260830191950 82 300 5.0 6.0 0.00 0.00 0.00 72 1023.6
20260830191450 81 7 5.0 6.0 0.00 0.00 0.00 70 1023.0
20260830190945 81 265 4.0 5.0 0.00 0.00 0.00 73 1023.6
20260830190441 81 283 4.0 6.0 0.00 0.00 0.00 71 1023.5
20260830185940 80 303 3.0 3.0 0.00 0.00 0.00 72 1023.5
20260830185435 80 315 5.0 7.0 0.00 0.00 0.00 71 1023.4
20260830184930 81 35 5.0 7.0 0.00 0.00 0.00 69 1023.6
20260830184429 81 265 5.0 7.0 0.00 0.00 0.00 68 1023.7
20260830183930 80 272 11.0 14.0 0.00 0.00 0.00 66 1023.7
20260830183424 80 286 6.0 7.0 0.00 0.00 0.00 68 1024.0
20260830182920 81 319 4.0 8.0 0.00 0.00 0.00 64 1024.0
20260830182415 81 271 7.0 8.0 0.00 0.00 0.00 65 1023.9
20260830181911 81 276 6.0 7.0 0.00 0.00 0.00 65 1024.0
20260830181407 81 276 10.0 14.0 0.00 0.00 0.00 63 1023.9
20260830180901 81 0 5.0 6.0 0.00 0.00 0.00 67 1023.9
20260830180400 82 261 4.0 6.0 0.00 0.00 0.00 64 1024.2
20260830175900 81 278 4.0 5.0 0.00 0.00 0.00 68 1024.0
20260830175359 80 17 7.0 8.0 0.00 0.00 0.00 67 1024.3
20260830174854 80 250 8.0 9.0 0.00 0.00 0.00 67 1024.5
20260830174350 81 354 10.0 13.0 0.00 0.00 0.00 68 1024.5
20260830173845 81 315 4.0 6.0 0.00 0.00 0.00 69 1024.3
20260830173340 80 297 3.0 5.0 0.00 0.00 0.00 71 1024.3
20260830172837 79 292 5.0 7.0 0.00 0.00 0.00 72 1024.5
20260830172333 79 292 7.0 9.0 0.00 0.00 0.00 73 1024.3
20260830171828 80 277 6.0 7.0 0.00 0.00 0.00 72 1024.4
20260830171324 80 295 6.0 8.0 0.00 0.00 0.00 71 1024.1
20260830170819 80 333 11.0 13.0 0.00 0.00 0.00 71 1024.3
20260830170318 80 345 10.0 13.0 0.00 0.00 0.00 70 1024.3
20260830165817 80 254 1.0 2.0 0.00 0.00 0.00 73 1024.3
20260830165313 80 283 7.0 8.0 0.00 0.00 0.00 73 1024.3
20260830164809 81 304 7.0 7.0 0.00 0.00 0.00 72 1024.7
20260830164305 80 317 4.0 5.0 0.00 0.00 0.00 74 1024.7
20260830163801 80 350 8.0 9.0 0.00 0.00 0.00 72 1024.5
20260830163256 79 325 8.0 10.0 0.00 0.00 0.00 71 1024.5
20260830162751 80 261 3.0 5.0 0.00 0.00 0.00 70 1024.7
20260830162247 78 338 11.0 11.0 0.00 0.00 0.00 73 1024.7
20260830161743 79 43 8.0 8.0 0.00 0.00 0.00 72 1024.5
20260830161241 79 354 9.0 10.0 0.00 0.00 0.00 73 1024.5
20260830160737 79 313 4.0 5.0 0.00 0.00 0.00 73 1024.5
20260830160232 79 320 6.0 7.0 0.00 0.00 0.00 75 1024.5
20260830155728 78 252 2.0 2.0 0.00 0.00 0.00 74 1024.4
20260830155224 78 250 2.0 2.0 0.00 0.00 0.00 73 1024.5
20260830154719 78 262 3.0 3.0 0.00 0.00 0.00 77 1024.7
20260830154214 78 76 6.0 7.0 0.00 0.00 0.00 77 1024.9
20260830153711 78 245 2.0 2.0 0.00 0.00 0.00 76 1024.7
20260830153206 77 275 6.0 7.0 0.00 0.00 0.00 79 1024.8
20260830152705 77 253 2.0 2.0 0.00 0.00 0.00 80 1024.7
20260830152204 77 265 3.0 5.0 0.00 0.00 0.00 83 1024.8
20260830151659 77 287 5.0 7.0 0.00 0.00 0.00 82 1024.9
20260830151158 77 314 4.0 5.0 0.00 0.00 0.00 82 1024.8
20260830150654 77 259 5.0 6.0 0.00 0.00 0.00 83 1024.9
20260830150148 77 257 2.0 2.0 0.00 0.00 0.00 83 1025.3
20260830145648 77 3 5.0 7.0 0.00 0.00 0.00 85 1024.7
20260830145143 77 249 2.0 3.0 0.00 0.00 0.00 83 1024.8
20260830144638 77 213 3.0 3.0 0.00 0.00 0.00 85 1025.0
20260830144134 76 287 6.0 6.0 0.00 0.00 0.00 85 1024.9
20260830143630 75 236 2.0 2.0 0.00 0.00 0.00 85 1024.8
20260830143127 75 346 5.0 6.0 0.00 0.00 0.00 87 1025.0
20260830142624 75 253 0.0 0.0 0.00 0.00 0.00 89 1024.7
20260830142118 73 254 0.0 0.0 0.00 0.00 0.00 89 1024.4
20260830141614 73 247 0.0 0.0 0.00 0.00 0.00 90 1024.5
20260830141108 72 245 0.0 0.0 0.00 0.00 0.00 90 1024.5
20260830140603 71 246 0.0 0.0 0.00 0.00 0.00 91 1024.5
20260830140059 71 247 0.0 0.0 0.00 0.00 0.00 92 1024.3
20260830135559 70 247 0.0 0.0 0.00 0.00 0.00 92 1024.5
20260830135054 70 247 0.0 0.0 0.00 0.00 0.00 93 1024.4
20260830134550 69 247 0.0 0.0 0.00 0.00 0.00 94 1024.4
20260830134050 68 247 0.0 0.0 0.00 0.00 0.00 95 1024.5
20260830133545 68 247 0.0 0.0 0.00 0.00 0.00 97 1024.8
20260830133040 67 247 0.0 0.0 0.00 0.00 0.00 98 1024.8
20260830132536 66 247 0.0 0.0 0.00 0.00 0.00 98 1024.8
20260830132031 65 248 0.0 0.0 0.00 0.00 0.00 99 1024.9
20260830131530 65 248 0.0 0.0 0.00 0.00 0.00 99 1025.0
20260830131025 64 247 0.0 0.0 0.00 0.00 0.00 99 1024.9
20260830130520 63 249 0.0 0.0 0.00 0.00 0.00 99 1025.0
20260830130016 63 248 0.0 0.0 0.00 0.00 0.00 99 1024.9
20260830125510 62 246 0.0 0.0 0.00 0.00 0.00 99 1024.8
20260830125009 61 246 0.0 0.0 0.00 0.00 0.00 99 1024.9
20260830124503 61 246 0.0 0.0 0.00 0.00 0.00 99 1025.1
20260830123959 60 246 0.0 0.0 0.00 0.00 0.00 99 1025.1
20260830123456 60 246 0.0 0.0 0.00 0.00 0.00 99 1025.0
20260830122954 60 246 0.0 0.0 0.00 0.00 0.00 99 1025.1
20260830122453 59 246 0.0 0.0 0.00 0.00 0.00 99 1025.2
20260830121948 59 246 0.0 0.0 0.00 0.00 0.00 99 1025.1
20260830121443 59 246 0.0 0.0 0.00 0.00 0.00 99 1025.1
20260830120938 58 246 0.0 0.0 0.00 0.00 0.00 99 1025.4
20260830120433 58 246 0.0 0.0 0.00 0.00 0.00 99 1025.1
20260830115930 58 246 0.0 0.0 0.00 0.00 0.00 99 1025.2
20260830115426 58 246 0.0 0.0 0.00 0.00 0.00 99 1025.0
20260830114921 58 246 0.0 0.0 0.00 0.00 0.00 99 1025.2
20260830114417 58 246 0.0 0.0 0.00 0.00 0.00 99 1025.2
20260830113917 58 246 0.0 0.0 0.00 0.00 0.00 99 1025.1
20260830113412 57 245 0.0 0.0 0.00 0.00 0.00 99 1025.3
20260830112907 57 246 0.0 0.0 0.00 0.00 0.00 99 1025.1
20260830112403 58 245 0.0 0.0 0.00 0.00 0.00 99 1025.0
20260830111900 57 243 0.0 0.0 0.00 0.00 0.00 99 1025.1
20260830111354 57 243 0.0 0.0 0.00 0.00 0.00 99 1025.2
20260830110850 57 241 0.0 0.0 0.00 0.00 0.00 99 1025.0
20260830110346 57 241 0.0 0.0 0.00 0.00 0.00 99 1025.1
20260830105844 57 241 0.0 0.0 0.00 0.00 0.00 99 1025.1
20260830105341 57 241 0.0 0.0 0.00 0.00 0.00 99 1025.0
20260830104837 56 239 0.0 0.0 0.00 0.00 0.00 99 1025.2
20260830104334 56 239 0.0 0.0 0.00 0.00 0.00 99 1025.0
20260830103832 56 239 0.0 0.0 0.00 0.00 0.00 99 1025.1
20260830103329 56 239 0.0 0.0 0.00 0.00 0.00 99 1025.0
20260830102826 56 239 0.0 0.0 0.00 0.00 0.00 99 1025.0
20260830102322 56 239 0.0 0.0 0.00 0.00 0.00 99 1025.0
20260830101818 56 239 0.0 0.0 0.00 0.00 0.00 99 1025.0
20260830101314 56 239 0.0 0.0 0.00 0.00 0.00 99 1024.7
20260830100813 56 239 0.0 0.0 0.00 0.00 0.00 99 1024.8
20260830100307 56 239 0.0 0.0 0.00 0.00 0.00 99 1024.9
20260830095806 56 239 0.0 0.0 0.00 0.00 0.00 99 1024.7
20260830095306 56 239 0.0 0.0 0.00 0.00 0.00 99 1025.1
20260830094758 56 239 0.0 0.0 0.00 0.00 0.00 99 1024.9
20260830094254 56 239 0.0 0.0 0.00 0.00 0.00 99 1024.9
20260830093750 56 239 0.0 0.0 0.00 0.00 0.00 99 1024.9
20260830093245 56 239 0.0 0.0 0.00 0.00 0.00 99 1024.9
20260830092744 56 239 0.0 0.0 0.00 0.00 0.00 99 1025.0
20260830092242 56 239 0.0 0.0 0.00 0.00 0.00 99 1025.0
20260830091738 56 239 0.0 0.0 0.00 0.00 0.00 99 1025.2
20260830091237 56 239 0.0 0.0 0.00 0.00 0.00 99 1025.0
20260830090736 56 239 0.0 0.0 0.00 0.00 0.00 99 1025.0
20260830090232 56 239 0.0 0.0 0.00 0.00 0.00 99 1024.9
20260830085731 56 239 0.0 0.0 0.00 0.00 0.00 99 1024.9
20260830085227 56 239 0.0 0.0 0.00 0.00 0.00 99 1025.0
20260830084722 56 239 0.0 0.0 0.00 0.00 0.00 99 1025.0
20260830084217 56 239 0.0 0.0 0.00 0.00 0.00 99 1025.0
20260830083712 56 239 0.0 0.0 0.00 0.00 0.00 99 1025.0
20260830083208 56 239 0.0 0.0 0.00 0.00 0.00 99 1024.8
20260830082702 56 239 0.0 0.0 0.00 0.00 0.00 99 1025.2
20260830082158 56 239 0.0 0.0 0.00 0.00 0.00 99 1025.2
20260830081653 56 239 0.0 0.0 0.00 0.00 0.00 99 1025.2
20260830081152 56 239 0.0 0.0 0.00 0.00 0.00 99 1025.2
20260830080647 57 239 0.0 0.0 0.00 0.00 0.00 99 1025.3
20260830080143 56 239 0.0 0.0 0.00 0.00 0.00 99 1025.2
20260830075642 57 239 0.0 0.0 0.00 0.00 0.00 99 1025.0
20260830075138 56 239 0.0 0.0 0.00 0.00 0.00 99 1025.2
20260830074633 56 239 0.0 0.0 0.00 0.00 0.00 99 1025.4
20260830074129 56 239 0.0 0.0 0.00 0.00 0.00 99 1025.5
20260830073625 56 239 0.0 0.0 0.00 0.00 0.00 99 1025.4